Location: Unspecified
(44.4377°N, 88.0525°W)
Time: 17:33:58
(UTC-05:00)

Okean 3 - Visible Passes

Search period start: 30 April 2016 00:00
Search period end: 10 May 2016 00:00
Orbit: 578 x 604 km, 82.5° (Epoch: 30 April)

Date Brightness Start Highest point End Pass type
(mag) Time Alt. Az. Time Alt. Az. Time Alt. Az.
30 Apr 3.8 21:35:01 27° SSE 21:36:55 46° E 21:41:03 10° NNE visible
30 Apr 6.1 23:11:42 10° WSW 23:14:29 17° WNW 23:17:15 10° NNW visible
01 May 3.4 21:42:47 22° S 21:45:26 71° E 21:49:44 10° NNE visible
01 May 6.4 23:21:48 10° W 23:23:15 11° WNW 23:24:42 10° NW visible
02 May 3.6 21:50:28 15° SSW 21:54:00 76° W 21:58:17 10° N visible
03 May 4.3 21:58:25 10° SSW 22:02:35 50° WNW 22:06:46 10° N visible
04 May 4.8 20:30:54 10° SE 20:34:09 21° E 20:37:24 10° NE visible
04 May 5.1 22:07:19 10° SW 22:11:13 33° WNW 22:15:08 10° N visible
05 May 4.3 20:38:49 10° SSE 20:42:36 31° E 20:46:22 10° NNE visible
05 May 5.8 22:16:27 10° SW 22:19:54 23° WNW 22:23:20 10° NNW visible
06 May 3.8 20:46:58 10° SSE 20:51:04 46° E 20:55:10 10° NNE visible
06 May 6.3 22:25:53 10° WSW 22:28:36 16° WNW 22:31:20 10° NNW visible
07 May 3.4 20:55:19 10° S 20:59:34 72° E 21:03:49 10° NNE visible
07 May 6.6 22:36:01 10° W 22:37:22 11° WNW 22:38:43 10° NW visible
08 May 3.7 21:03:51 10° SSW 21:08:07 76° W 21:12:23 10° N visible
09 May 4.5 21:12:33 10° SSW 21:16:42 49° WNW 21:20:51 10° N visible
